Dewpoint
47 47 46 47 46 45 45 46 46 46 46 47 49 50 54 57 58 58 58 55 54 54 54 54 55 56 53 50 48 49 51 52 56 57 53 49 46 43 40 39 41 40 37 40 40 43 41
47 46 45 45 46 46 45 44 43 44 44 47 48 50 52 56 56 58 58 56 55 54 54 55 54 54 47 43 45 45 44 51 54 55 53 51 48 45 42 40 40 39 41 40 41 40 40
45 45 46 45 46 46 46 46 45 44 43 45 48 48 49 52 54 57 57 56 55 55 54 55 54 49 46 36 43 44 44 46 55 55 53 52 49 46 45 41 43 41 38 36 36 37 36
45 45 45 46 45 46 46 46 45 44 44 43 47 48 48 50 53 56 57 57 56 55 55 54 54 46 39 43 46 44 43 43 49 50 52 54 52 46 41 44 39 37 38 33 34 38 39
45 48 48 46 46 46 46 45 45 44 43 43 45 47 48 49 50 54 56 57 56 56 55 55 49 43 40 46 44 43 41 43 46 45 48 51 47 42 43 37 35 35 29 32 33 35 36
48 46 47 46 46 47 46 45 45 43 44 45 45 45 48 49 49 52 55 57 55 54 52 51 47 43 43 40 43 43 43 42 42 43 43 43 40 36 35 36 29 29 32 30 30 33 36
47 47 47 47 48 46 46 46 45 45 43 44 45 46 48 49 49 49 53 54 46 45 47 40 40 39 40 43 44 42 42 40 40 41 37 39 37 33 32 34 33 32 31 30 31 33 32
47 48 47 47 47 46 46 46 46 44 44 45 46 47 47 47 48 49 51 46 41 42 39 44 43 41 43 42 39 42 42 37 37 34 37 37 34 34 34 34 33 33 31 30 30 31 31
47 47 47 47 47 46 46 46 45 45 44 45 46 45 47 47 47 48 48 48 48 42 36 40 43 41 41 42 38 40 40 38 36 35 36 32 32 33 34 34 32 32 31 29 28 29 30
45 45 46 46 46 46 46 45 45 44 44 45 44 45 46 47 45 45 45 50 50 45 36 33 39 40 41 41 37 41 40 38 37 34 35 34 34 32 32 32 32 30 30 30 29 29 25
45 45 46 45 46 45 45 45 45 43 43 43 46 46 46 48 45 43 47 51 50 43 24 33 38 43 41 36 37 40 42 38 35 34 35 32 32 33 32 31 32 30 31 29 29 29 28
45 45 45 45 45 45 45 45 44 43 44 45 46 46 48 47 46 45 51 50 46 32 23 32 39 39 38 37 37 40 40 39 37 34 35 32 35 33 31 33 33 33 31 31 30 30 27
42 43 44 45 45 44 44 44 43 42 42 45 46 49 48 47 41 48 51 44 31 29 30 31 32 37 34 33 36 36 37 36 34 32 32 32 32 33 33 30 33 33 30 25 24 25 21
44 46 45 45 44 43 44 43 42 42 44 46 48 48 47 46 49 50 48 36 28 26 28 32 33 33 31 31 34 35 35 34 34 33 32 28 27 32 35 31 28 30 28 24 17 15 15
45 45 44 44 43 44 44 43 43 42 45 47 48 46 47 48 48 46 39 31 29 25 30 31 33 31 32 30 32 33 33 31 32 34 31 29 26 32 33 33 32 32 30 29 27 25 23
45 44 44 43 43 44 43 43 42 42 46 48 44 43 44 49 48 44 34 34 27 33 32 31 28 28 27 30 30 30 31 31 31 32 33 31 29 29 32 35 34 32 31 29 31 20 17
44 44 43 43 44 43 43 41 42 43 46 48 43 38 46 48 46 38 33 33 34 34 33 31 30 29 28 28 30 29 29 31 33 34 34 33 30 29 32 32 28 32 31 34 30 28 19
44 44 44 43 43 43 43 40 42 44 46 46 41 33 46 47 36 36 35 33 37 35 39 36 32 31 30 31 30 30 29 29 33 36 33 34 31 28 28 27 29 27 26 28 28 25 27
44 44 44 43 43 42 42 40 42 44 45 44 38 36 47 46 34 35 36 35 37 37 37 36 34 34 32 31 30 30 31 32 34 34 32 33 32 26 28 29 30 29 28 28 31 31 28
44 44 43 43 42 42 42 40 43 44 46 47 39 34 40 42 41 35 33 33 35 38 37 37 37 36 33 31 32 31 31 33 34 33 36 35 30 31 24 28 31 33 30 31 33 28 26
44 44 44 43 42 42 42 41 42 45 47 47 40 35 38 35 36 34 33 33 33 33 37 37 36 36 33 32 32 32 32 32 34 36 35 34 32 33 31 30 31 33 32 32 32 31 27
42 43 43 43 42 42 42 41 44 46 47 43 36 37 39 37 35 32 33 31 32 35 34 35 32 35 36 33 32 33 33 33 32 34 33 36 32 34 32 34 33 33 34 35 34 34 32
42 43 42 42 41 41 42 42 44 45 46 41 43 43 41 37 35 31 31 32 31 35 36 37 36 35 35 35 38 38 37 37 35 33 33 35 35 33 29 31 34 31 34 34 35 36 33
42 42 42 42 42 41 42 42 42 44 45 44 43 42 40 34 34 31 32 33 34 32 37 38 38 36 39 43 42 41 41 39 39 39 35 36 34 34 30 34 27 36 38 38 36 35 36
42 42 42 42 42 42 41 42 42 42 44 44 45 42 41 36 34 33 33 33 36 38 36 37 39 40 43 42 37 33 36 37 36 37 38 37 37 33 31 30 29 34 36 39 35 32 33
41 41 40 40 40 41 41 41 42 41 43 44 45 46 44 39 35 34 34 33 33 34 36 38 43 45 43 40 36 30 29 30 30 33 37 37 39 35 32 28 26 32 33 37 36 30 33
41 40 40 41 41 41 41 41 42 40 43 44 44 45 43 41 41 36 35 36 40 39 39 40 41 43 44 39 34 30 30 32 29 29 30 33 34 31 29 29 28 32 34 40 29 30 34
40 40 40 39 39 40 40 40 39 40 41 44 42 46 41 40 43 41 41 40 40 40 37 40 40 41 41 36 34 34 35 33 32 31 31 30 30 30 30 27 27 33 36 32 34 35 34
40 40 40 39 38 38 38 38 39 40 40 43 41 43 44 40 45 46 44 44 42 42 41 42 40 40 41 38 38 39 35 34 33 28 33 31 31 29 30 30 34 34 35 36 36 35 35
Lifted_Index
8 8 8 8 8 9 9 9 10 10 10 9 8 7 5 4 2 2 2 3 3 4 4 4 4 4 4 3 3 5 6 5 4 3 3 4 5 6 7 7 7 7 7 6 6 5 5
9 9 9 9 9 9 9 9 10 10 10 10 9 8 6 5 3 2 2 2 3 4 4 4 4 5 5 4 4 5 5 4 3 3 3 4 5 6 6 7 7 7 7 6 6 6 6
10 9 9 9 9 9 9 9 10 10 10 10 9 9 8 6 5 3 2 2 3 3 4 4 4 5 5 5 6 6 5 4 3 3 3 4 5 6 6 7 7 7 7 6 6 6 7
10 9 9 9 9 9 9 10 10 11 11 11 10 9 9 8 6 4 3 2 2 3 3 4 5 5 5 6 6 7 6 5 4 4 4 4 5 6 6 7 7 7 6 6 6 6 7
10 9 9 9 9 10 10 10 10 11 11 10 10 9 9 8 7 5 3 2 2 3 3 4 5 5 6 6 6 6 6 5 5 5 6 5 6 6 6 6 6 6 6 6 6 7 7
9 9 9 9 9 10 10 10 10 10 10 9 9 8 8 8 7 6 3 2 3 4 4 4 5 5 6 6 6 6 6 6 5 6 6 7 7 7 7 6 6 6 6 6 7 7 7
9 9 9 9 9 9 9 9 9 8 8 7 7 6 6 7 7 6 4 3 4 4 4 5 5 6 6 6 6 6 6 6 5 6 6 7 7 7 7 6 6 6 6 6 7 7 7
9 9 9 8 8 8 8 7 7 6 6 5 5 5 5 6 6 6 4 3 4 4 4 5 6 6 6 6 6 6 6 6 5 5 6 6 6 6 7 7 7 7 6 6 7 7 8
9 9 9 8 8 7 7 6 5 4 4 4 4 4 4 5 5 5 4 4 4 4 4 5 6 6 6 6 6 6 6 6 5 5 5 6 6 7 7 7 6 6 6 6 6 6 7
10 10 9 8 8 7 7 5 4 3 3 3 3 3 3 4 4 4 4 4 4 4 4 4 6 6 6 6 6 6 7 6 6 5 6 6 6 7 7 6 6 5 6 6 6 6 5
11 10 9 9 8 8 6 5 3 3 2 2 2 2 2 3 4 4 4 4 4 3 3 4 6 6 6 7 7 7 7 7 6 6 6 6 7 7 7 6 6 6 6 6 6 5 4
11 11 10 10 9 8 6 4 3 2 1 1 1 1 1 2 3 4 4 4 4 3 3 4 6 6 6 7 7 7 7 7 6 6 6 6 7 7 7 6 7 7 6 6 5 4 3
12 11 10 10 9 8 6 5 3 2 1 1 0 1 1 2 3 4 4 3 2 2 3 4 6 6 6 6 6 6 7 6 6 5 5 5 6 6 6 6 7 7 6 4 2 2 1
12 11 10 10 9 8 6 5 3 2 1 1 0 1 1 2 3 4 4 3 2 2 3 4 5 5 5 6 6 6 6 6 6 5 4 4 4 5 6 6 6 6 5 3 2 1 2
11 11 10 10 9 8 6 5 3 2 1 1 1 1 1 2 4 4 3 2 2 2 3 4 5 4 4 5 5 5 5 5 5 6 5 4 4 5 6 7 6 6 5 4 3 2 2
12 11 11 10 8 7 6 5 3 2 1 1 1 1 2 3 4 4 3 2 2 3 3 4 4 4 4 4 5 5 5 5 5 6 6 5 5 6 7 7 6 6 5 4 3 2 1
12 11 11 9 8 7 6 5 4 2 2 1 2 2 2 3 4 4 2 2 2 3 3 3 4 4 4 4 4 4 5 5 6 6 6 6 6 6 6 6 6 6 5 4 3 2 1
12 12 11 9 7 6 6 5 4 3 2 2 2 2 3 4 4 3 2 2 2 3 3 3 4 4 4 5 4 4 4 5 6 6 6 6 6 5 5 6 6 5 4 3 2 2 2
12 12 11 9 8 6 6 5 4 4 3 3 2 2 3 3 3 3 2 2 2 2 2 3 3 4 5 5 4 4 4 5 6 6 6 6 6 5 4 5 5 4 3 3 2 2 2
13 12 11 10 8 7 6 6 5 5 4 3 2 2 3 3 3 3 2 2 2 2 2 3 3 4 4 4 4 4 4 5 6 6 6 6 6 5 4 4 4 3 3 3 3 2 1
13 12 12 11 9 7 7 6 6 6 5 3 3 2 3 3 3 3 2 2 2 2 2 3 3 3 4 4 3 3 4 5 5 6 6 6 6 5 4 4 3 3 3 3 2 2 1
13 13 12 11 10 8 7 7 7 6 5 4 4 3 3 3 3 3 3 2 2 2 2 3 3 3 3 3 3 3 4 5 5 5 6 5 5 4 3 3 3 2 2 2 2 2 2
13 13 12 11 10 9 8 8 8 7 7 6 5 4 4 3 3 3 2 2 2 2 2 2 2 2 2 3 3 4 4 4 4 5 5 5 5 3 2 2 2 2 2 2 2 2 2
13 13 13 12 11 10 9 9 9 8 8 7 6 5 4 3 3 2 2 2 2 2 2 2 2 2 2 3 3 4 4 4 4 4 4 5 5 4 2 2 2 2 2 2 2 2 2
14 14 13 12 11 10 10 10 10 9 8 7 6 5 4 3 3 3 2 2 2 2 2 2 2 2 3 3 3 3 3 3 4 4 4 5 5 4 2 1 1 1 2 2 2 2 2
14 14 14 13 12 11 11 10 10 10 9 8 7 6 4 3 3 3 2 2 2 1 2 2 2 2 3 3 3 3 3 3 3 3 4 4 4 3 2 1 1 1 2 2 2 2 2
14 15 14 14 13 12 11 11 11 11 10 8 7 6 4 3 2 2 2 2 2 1 1 2 2 2 3 3 3 3 3 3 3 3 4 4 4 3 2 2 2 2 2 2 2 2 2
14 15 15 14 14 13 12 12 12 12 11 9 7 6 4 3 2 2 2 2 2 2 2 2 2 2 3 3 3 3 3 3 3 4 4 4 4 3 3 2 2 2 2 2 2 2 2
14 15 15 15 14 14 13 13 12 12 11 9 7 6 5 3 2 2 2 2 2 2 2 2 2 2 3 3 3 3 3 4 4 4 4 4 4 3 3 3 3 2 2 2 3 2 2